Temp
94 93 93 93 93 94 94 96 99 99 96 100 99 97 98 97 95 100 99 97 95 95 92 91 91 90 93 91 87 86 86 85 85 86 83 83 84 85 85 84 83 79
94 93 91 95 92 91 92 97 100 101 96 94 97 98 96 97 99 98 99 96 96 95 91 92 92 90 90 88 86 84 83 84 82 85 82 82 82 82 82 82 80 79
97 96 96 96 97 96 96 97 96 98 101 101 101 99 102 101 99 93 94 94 94 95 91 91 90 90 90 86 84 83 83 80 79 81 80 80 80 79 81 81 80 78
97 97 99 99 97 95 99 97 97 97 97 100 101 103 101 103 98 95 91 92 93 91 91 91 90 90 88 84 82 80 82 80 78 79 78 79 79 80 80 79 79 76
98 98 99 97 96 98 97 100 99 100 99 98 102 99 98 95 95 98 95 92 91 93 90 88 88 87 85 81 80 79 80 81 79 78 77 77 78 78 77 77 76 75
98 96 95 94 94 94 98 101 102 103 102 102 101 100 96 96 94 92 91 92 93 91 89 87 86 86 84 81 79 78 79 79 78 77 77 76 76 76 76 76 74 73
100 98 97 96 95 96 99 101 101 102 102 102 97 95 94 93 91 90 90 90 89 88 87 83 82 82 82 80 78 78 78 77 77 76 75 74 74 74 75 73 72 72
97 96 93 92 95 98 98 101 102 101 100 96 95 93 93 92 90 91 89 88 87 86 85 84 82 80 81 79 77 77 77 78 76 75 73 73 73 72 72 73 73 72
93 90 91 93 97 97 99 100 101 101 99 94 93 92 92 91 90 89 87 85 84 83 82 82 80 81 80 78 77 76 76 76 75 74 73 73 73 72 72 73 72 72
90 91 92 94 95 97 96 101 101 98 94 93 92 93 91 89 89 87 85 83 83 82 81 79 79 79 79 78 77 76 75 74 74 74 75 74 73 74 74 73 72 72
92 93 92 95 97 96 96 94 91 91 90 90 90 90 89 88 87 86 85 84 84 82 80 78 78 78 77 77 77 76 75 75 74 74 74 73 73 73 75 73 73 72
91 91 91 92 94 93 95 91 89 88 88 87 86 85 86 87 86 87 87 84 83 81 80 77 77 76 76 76 76 76 75 75 75 74 74 74 74 74 74 74 74 72
90 90 90 90 91 92 89 88 87 86 85 85 85 84 84 83 84 83 83 81 79 79 78 77 75 75 75 76 76 76 74 75 74 74 74 74 75 74 75 75 75 75
89 90 90 89 91 88 87 86 86 85 84 83 84 83 82 82 81 81 81 80 79 77 77 75 74 73 74 76 76 75 75 75 74 74 74 74 74 75 75 75 76 75
89 90 89 88 88 86 85 85 84 83 83 83 82 83 84 83 82 82 79 78 77 77 76 75 73 72 72 74 73 74 76 75 75 75 74 74 74 75 75 75 76 77
88 88 88 87 86 85 84 83 83 83 82 82 82 82 80 80 79 79 78 77 77 76 75 74 73 73 72 72 73 72 72 75 75 74 74 74 73 73 73 74 75 76
87 87 87 85 85 84 83 83 82 82 81 81 80 79 79 79 79 78 78 78 77 75 74 74 73 72 71 69 70 70 73 72 75 74 74 74 73 72 72 73 74 75
87 87 86 85 84 83 82 82 82 81 79 79 79 78 79 79 78 78 77 77 76 75 74 74 73 70 67 68 69 69 71 72 77 75 74 73 73 73 73 73 73 75
87 86 85 84 83 83 82 81 80 79 79 79 78 79 79 78 77 78 77 77 76 74 74 74 74 70 66 68 67 67 68 72 76 75 73 73 73 73 73 72 72 73
87 86 84 83 83 82 81 80 79 79 79 79 78 78 78 78 78 77 77 76 75 74 73 74 72 70 66 67 66 66 68 69 77 75 74 73 72 72 72 71 71 71
86 85 83 83 82 81 80 80 79 79 78 78 78 78 77 77 76 76 75 75 75 74 74 73 73 67 66 66 65 65 66 71 76 74 73 72 71 71 70 70 70 71
85 84 83 82 81 81 80 79 79 78 77 78 78 78 77 77 76 76 75 75 75 74 73 72 72 64 65 64 64 64 67 76 75 73 72 72 71 71 71 70 69 70
85 84 82 82 81 80 79 79 78 77 78 78 77 76 76 76 75 75 75 75 74 74 73 72 73 65 62 63 63 63 70 76 74 74 73 72 73 73 71 70 69 69
85 83 82 81 80 79 79 78 78 78 78 78 76 76 75 76 75 75 75 75 74 74 74 72 71 68 62 62 61 62 69 75 75 74 74 74 74 74 72 70 70 71
84 83 82 81 80 80 79 78 78 78 78 78 77 77 76 76 77 75 75 75 75 74 77 74 72 69 61 60 61 63 68 76 75 75 74 73 73 72 73 71 70 71
84 82 81 81 80 79 79 78 78 78 77 77 77 77 77 76 76 75 74 74 74 75 75 74 73 71 65 59 60 62 64 75 75 75 73 74 74 72 71 71 70 70
MSLP
1011.98 1012.22 1012.54 1012.66 1012.70 1012.50 1012.38 1012.54 1012.38 1012.46 1012.38 1012.10 1012.30 1012.54 1012.46 1012.30 1012.26 1012.34 1012.38 1012.30 1012.50 1012.78 1013.10 1013.22 1013.26 1013.50 1013.50 1013.50 1013.70 1013.82 1013.86 1013.82 1013.70 1013.46 1013.70 1013.66 1013.70 1013.66 1013.66 1013.58 1013.54 1013.86
1011.74 1011.82 1012.02 1012.18 1012.34 1012.34 1012.26 1011.94 1011.86 1011.70 1011.94 1011.98 1011.78 1012.02 1011.82 1011.82 1011.94 1012.02 1012.30 1012.58 1012.74 1013.02 1013.26 1013.42 1013.46 1013.62 1013.74 1013.98 1014.10 1014.30 1014.22 1014.14 1014.26 1013.86 1014.14 1014.14 1014.06 1014.06 1014.06 1013.94 1013.98 1013.98
1011.46 1011.58 1011.78 1012.02 1012.10 1012.22 1012.14 1011.86 1011.70 1011.62 1011.54 1011.62 1011.50 1011.54 1011.62 1011.50 1011.86 1012.30 1012.54 1012.90 1013.14 1013.30 1013.54 1013.66 1013.74 1013.78 1013.94 1014.26 1014.38 1014.58 1014.58 1014.70 1014.90 1014.58 1014.62 1014.62 1014.50 1014.54 1014.30 1014.18 1014.10 1014.30
1011.26 1011.22 1011.30 1011.34 1011.22 1011.62 1011.62 1011.78 1011.86 1011.82 1011.70 1011.70 1011.78 1011.46 1011.50 1011.46 1011.90 1012.42 1012.94 1013.06 1013.30 1013.58 1013.70 1013.82 1013.94 1014.02 1014.22 1014.58 1014.78 1014.94 1014.78 1014.86 1015.10 1015.02 1015.02 1014.86 1014.74 1014.66 1014.54 1014.50 1014.54 1014.66
1011.02 1011.02 1010.94 1011.02 1010.90 1010.98 1011.14 1011.34 1011.54 1011.54 1011.58 1011.42 1011.18 1011.26 1011.58 1011.90 1012.18 1012.34 1012.70 1013.18 1013.34 1013.46 1013.78 1014.14 1014.22 1014.38 1014.58 1014.98 1015.14 1015.30 1015.14 1015.18 1015.30 1015.26 1015.30 1015.30 1015.10 1015.10 1015.06 1015.02 1015.14 1015.18
1010.62 1010.70 1010.66 1010.86 1010.94 1011.14 1011.38 1011.26 1011.10 1011.02 1011.10 1011.22 1011.30 1011.22 1011.74 1012.02 1012.58 1013.06 1013.18 1013.30 1013.42 1013.74 1014.14 1014.46 1014.70 1014.74 1014.90 1015.30 1015.46 1015.54 1015.54 1015.62 1015.62 1015.46 1015.54 1015.66 1015.58 1015.42 1015.50 1015.54 1015.58 1015.58
1010.46 1010.58 1010.78 1010.66 1010.90 1011.10 1011.22 1011.06 1010.86 1010.70 1010.70 1010.78 1011.02 1011.82 1011.98 1012.54 1012.98 1013.26 1013.42 1013.62 1013.90 1014.06 1014.42 1014.78 1015.06 1015.22 1015.22 1015.46 1015.66 1015.74 1015.70 1015.70 1015.74 1015.66 1015.90 1015.98 1015.94 1015.94 1015.82 1015.78 1015.78 1015.78
1009.98 1010.18 1010.54 1010.74 1011.14 1011.26 1011.38 1011.06 1010.90 1010.82 1010.70 1011.14 1011.74 1012.02 1012.18 1012.70 1013.06 1013.26 1013.58 1013.82 1014.18 1014.50 1014.66 1014.94 1015.06 1015.34 1015.42 1015.62 1015.86 1015.98 1015.94 1015.78 1015.90 1015.90 1016.10 1016.18 1016.10 1016.18 1016.06 1015.94 1015.82 1015.78
1009.86 1010.14 1010.42 1010.86 1011.18 1011.30 1011.30 1011.02 1010.78 1010.58 1010.46 1011.46 1011.94 1012.30 1012.42 1012.74 1013.18 1013.54 1013.90 1014.18 1014.50 1014.78 1014.94 1015.14 1015.34 1015.38 1015.58 1015.74 1015.94 1016.02 1016.10 1016.10 1016.14 1016.18 1016.30 1016.42 1016.38 1016.26 1016.18 1016.02 1015.94 1015.82
1010.22 1010.30 1010.54 1010.86 1011.22 1011.10 1011.14 1010.78 1010.54 1010.62 1010.90 1011.50 1011.90 1012.26 1012.82 1013.10 1013.34 1013.78 1014.10 1014.38 1014.74 1014.98 1015.22 1015.46 1015.58 1015.70 1015.74 1015.82 1015.90 1016.02 1016.22 1016.42 1016.42 1016.38 1016.38 1016.38 1016.38 1016.26 1016.14 1016.02 1016.02 1015.98
1010.50 1010.54 1010.90 1010.94 1011.02 1011.02 1011.06 1011.22 1011.42 1011.46 1011.34 1011.70 1012.06 1012.62 1012.98 1013.38 1013.70 1013.82 1014.18 1014.38 1014.82 1015.22 1015.50 1015.70 1015.78 1015.78 1015.90 1015.90 1015.94 1016.02 1016.26 1016.38 1016.50 1016.42 1016.42 1016.38 1016.26 1016.14 1015.98 1015.98 1015.98 1015.94
1010.58 1010.78 1011.02 1011.06 1010.98 1011.02 1011.22 1011.58 1011.62 1011.78 1011.98 1012.18 1012.46 1012.98 1013.26 1013.46 1013.82 1013.98 1014.30 1014.74 1015.02 1015.30 1015.58 1015.82 1015.86 1015.90 1015.94 1015.98 1016.06 1016.18 1016.30 1016.38 1016.30 1016.34 1016.38 1016.26 1016.18 1016.06 1015.98 1015.90 1015.86 1015.94
1010.66 1010.86 1010.94 1011.10 1011.10 1011.14 1011.54 1011.78 1011.94 1012.10 1012.38 1012.70 1012.78 1013.14 1013.54 1013.94 1014.18 1014.50 1014.74 1015.10 1015.42 1015.58 1015.86 1015.98 1016.06 1016.06 1016.02 1016.02 1016.10 1016.18 1016.34 1016.34 1016.38 1016.38 1016.30 1016.22 1016.10 1016.06 1015.98 1015.86 1015.74 1015.82
1010.62 1010.70 1010.86 1011.02 1011.06 1011.38 1011.66 1011.94 1012.18 1012.42 1012.66 1012.86 1013.10 1013.54 1013.98 1014.26 1014.58 1014.82 1015.02 1015.26 1015.54 1015.78 1015.98 1016.14 1016.26 1016.30 1016.22 1016.10 1016.18 1016.26 1016.30 1016.38 1016.46 1016.42 1016.42 1016.30 1016.22 1016.10 1016.02 1015.90 1015.74 1015.74
1010.46 1010.66 1010.78 1011.02 1011.30 1011.58 1011.90 1012.22 1012.46 1012.70 1012.90 1013.18 1013.46 1013.82 1014.02 1014.30 1014.46 1014.82 1015.30 1015.62 1015.78 1015.94 1016.18 1016.26 1016.46 1016.62 1016.54 1016.50 1016.54 1016.46 1016.30 1016.46 1016.50 1016.42 1016.42 1016.46 1016.42 1016.34 1016.14 1015.98 1015.86 1015.70
1010.42 1010.70 1010.98 1011.18 1011.58 1011.90 1012.14 1012.38 1012.66 1012.94 1013.22 1013.54 1013.78 1014.02 1014.34 1014.58 1014.90 1015.14 1015.46 1015.78 1016.02 1016.18 1016.34 1016.50 1016.70 1016.70 1016.78 1016.74 1016.74 1016.82 1016.78 1016.50 1016.50 1016.50 1016.50 1016.54 1016.58 1016.54 1016.38 1016.14 1015.98 1015.86
1010.50 1010.82 1011.02 1011.54 1011.74 1011.98 1012.26 1012.58 1012.90 1013.18 1013.50 1013.82 1014.14 1014.42 1014.70 1014.90 1015.14 1015.46 1015.66 1015.82 1016.06 1016.34 1016.62 1016.74 1016.82 1016.90 1016.86 1016.86 1016.86 1016.86 1016.78 1016.74 1016.54 1016.66 1016.58 1016.62 1016.66 1016.74 1016.70 1016.50 1016.18 1015.90
1010.54 1010.78 1011.18 1011.54 1011.82 1012.22 1012.50 1012.74 1013.06 1013.46 1013.86 1014.18 1014.42 1014.74 1014.90 1015.02 1015.38 1015.58 1015.70 1015.90 1016.14 1016.42 1016.66 1016.86 1017.02 1017.14 1017.06 1016.94 1016.94 1016.90 1016.90 1016.82 1016.46 1016.74 1016.78 1016.78 1016.78 1016.78 1016.70 1016.58 1016.38 1016.06
1010.42 1010.86 1011.26 1011.62 1011.98 1012.22 1012.66 1012.98 1013.34 1013.74 1014.06 1014.38 1014.70 1014.70 1014.94 1015.30 1015.50 1015.66 1015.86 1015.98 1016.22 1016.54 1016.74 1016.82 1017.02 1017.14 1017.10 1017.02 1017.02 1016.98 1016.90 1016.82 1016.58 1016.74 1016.94 1016.98 1016.90 1016.82 1016.78 1016.74 1016.58 1016.42
1010.38 1010.82 1011.34 1011.66 1011.98 1012.38 1012.78 1013.22 1013.54 1013.94 1014.06 1014.22 1014.50 1014.78 1015.10 1015.34 1015.50 1015.78 1015.94 1016.14 1016.34 1016.58 1016.82 1016.98 1017.14 1017.14 1017.10 1017.06 1017.06 1016.98 1016.86 1016.82 1016.58 1016.86 1017.02 1017.10 1017.10 1017.14 1017.06 1016.98 1016.82 1016.70
1010.42 1010.86 1011.38 1011.78 1012.10 1012.46 1012.98 1013.34 1013.62 1013.86 1014.10 1014.34 1014.54 1014.86 1015.18 1015.50 1015.74 1015.98 1016.14 1016.34 1016.50 1016.66 1016.90 1017.14 1017.22 1017.30 1017.26 1017.18 1017.10 1016.98 1016.86 1016.74 1016.78 1017.06 1017.22 1017.30 1017.26 1017.22 1017.22 1017.18 1017.06 1016.86
1010.38 1010.90 1011.34 1011.74 1012.18 1012.62 1013.10 1013.38 1013.62 1013.90 1014.22 1014.30 1014.58 1014.86 1015.14 1015.38 1015.70 1015.90 1016.14 1016.34 1016.46 1016.66 1016.98 1017.22 1017.34 1017.42 1017.42 1017.38 1017.22 1017.06 1016.78 1016.66 1016.94 1017.22 1017.38 1017.38 1017.38 1017.34 1017.34 1017.30 1017.18 1017.06
1010.18 1010.74 1011.26 1011.70 1012.14 1012.70 1013.10 1013.30 1013.62 1013.94 1014.14 1014.22 1014.70 1015.06 1015.38 1015.66 1015.86 1015.98 1016.14 1016.34 1016.58 1016.74 1017.02 1017.22 1017.30 1017.42 1017.42 1017.38 1017.26 1017.10 1016.78 1016.70 1016.90 1017.14 1017.30 1017.38 1017.34 1017.30 1017.42 1017.46 1017.38 1017.26
1010.02 1010.50 1011.14 1011.66 1012.14 1012.66 1012.90 1013.18 1013.46 1013.70 1014.02 1014.18 1014.66 1015.10 1015.46 1015.66 1015.78 1016.06 1016.22 1016.38 1016.62 1016.90 1016.98 1017.26 1017.42 1017.50 1017.54 1017.46 1017.34 1017.14 1016.94 1016.86 1016.86 1017.06 1017.26 1017.26 1017.22 1017.18 1017.34 1017.54 1017.50 1017.38
1009.86 1010.38 1010.98 1011.50 1012.02 1012.34 1012.62 1013.14 1013.42 1013.70 1013.90 1014.14 1014.58 1014.90 1015.38 1015.58 1015.82 1016.18 1016.38 1016.54 1016.66 1016.82 1016.86 1017.14 1017.38 1017.50 1017.50 1017.38 1017.26 1017.14 1016.94 1016.70 1016.74 1016.94 1017.22 1017.30 1017.38 1017.50 1017.38 1017.54 1017.62 1017.50
1009.74 1010.38 1010.86 1011.26 1011.70 1012.10 1012.50 1012.94 1013.18 1013.54 1013.94 1014.34 1014.66 1014.98 1015.46 1015.74 1016.06 1016.34 1016.66 1016.90 1016.90 1016.90 1016.98 1017.10 1017.34 1017.50 1017.58 1017.50 1017.34 1017.10 1016.82 1016.66 1016.74 1017.02 1017.30 1017.26 1017.34 1017.58 1017.82 1017.82 1017.74 1017.66
Wind_Speed
8 8 7 6 5 5 3 5 6 8 3 5 9 8 7 4 4 0 1 1 6 3 6 3 3 3 5 5 6 6 5 7 7 7 8 8 8 9 9 10 10 10
8 8 6 8 5 5 4 5 7 6 8 5 3 2 2 2 1 2 1 5 2 5 4 5 3 3 3 5 5 5 6 6 7 8 8 9 7 9 9 10 9 8
10 9 11 10 9 10 7 4 4 3 2 1 3 0 3 1 1 8 5 2 2 4 4 3 2 3 4 5 5 5 6 5 7 8 7 7 7 6 7 7 7 9
10 10 9 10 8 9 8 6 4 2 3 4 3 6 3 2 3 8 6 5 2 3 2 3 4 5 7 7 5 4 5 5 7 6 5 4 5 7 8 8 9 7
12 10 9 6 3 4 5 8 10 9 7 5 3 1 3 3 2 3 5 6 2 3 5 5 6 5 6 6 6 4 5 5 6 4 4 5 6 7 6 7 9 8
10 6 5 5 5 4 4 4 3 2 1 1 4 2 7 6 6 6 5 6 6 5 6 7 6 6 7 6 4 4 5 5 6 4 5 6 7 7 7 8 8 9
13 9 7 2 5 3 5 7 6 7 7 4 8 9 7 8 6 6 5 5 6 6 7 6 5 5 5 4 4 4 4 4 4 5 7 6 6 7 8 6 6 5
8 9 6 5 4 6 7 6 6 2 2 11 9 7 7 7 7 6 6 6 7 7 6 7 4 5 6 5 5 5 5 4 6 6 6 6 5 5 6 5 5 5
4 8 9 9 8 7 9 8 4 5 4 11 9 8 7 5 7 7 6 7 7 6 6 6 6 6 6 5 4 4 5 7 8 7 7 8 8 7 6 5 6 6
7 7 9 8 7 6 6 7 3 3 10 9 8 7 8 8 7 7 6 5 6 7 7 6 6 6 6 5 5 6 7 7 8 8 8 7 6 7 5 4 5 5
8 6 5 6 9 4 2 8 10 7 6 7 7 9 8 7 6 6 5 4 7 7 7 6 5 5 5 5 5 6 7 7 6 5 6 5 5 4 6 4 5 5
6 5 5 4 2 4 5 8 7 8 8 8 8 8 6 6 5 5 7 8 7 8 7 6 5 5 5 4 6 5 6 5 4 5 4 3 3 4 5 5 4 6
7 5 4 4 2 5 8 7 7 8 8 7 7 6 6 6 6 8 8 8 8 7 7 6 6 5 4 4 5 5 5 4 5 5 4 3 4 5 5 5 5 7
7 5 4 5 3 8 8 7 7 7 7 7 7 7 7 7 6 8 8 7 7 6 6 5 5 5 5 4 4 4 4 5 4 4 4 4 5 4 5 4 5 5
7 5 5 4 7 8 8 8 8 7 7 7 7 7 7 7 7 9 9 8 7 6 6 5 5 6 5 5 5 5 4 5 4 4 4 4 5 5 4 5 6 6
7 6 6 6 8 8 8 8 8 8 7 7 7 7 7 7 8 8 7 7 6 6 6 5 5 5 7 10 8 6 6 3 4 4 5 5 5 4 5 5 5 6
7 7 7 8 7 8 8 8 8 8 7 8 8 8 7 7 7 7 6 6 7 6 6 6 5 5 10 9 9 10 7 6 2 4 4 5 5 4 5 5 5 4
8 8 9 8 8 8 8 8 8 8 8 8 8 9 7 7 7 7 7 6 7 7 6 6 5 6 7 7 8 9 9 6 4 5 5 4 4 5 4 3 4 5
9 10 9 8 8 8 7 8 8 9 9 9 9 8 8 7 7 7 7 7 7 7 7 6 5 6 5 7 7 8 9 9 3 4 5 5 5 5 5 6 6 6
9 10 9 8 8 8 8 8 9 9 8 7 8 8 8 8 8 8 7 6 6 7 6 5 4 5 5 7 7 8 8 7 3 6 5 5 6 7 7 6 6 6
10 10 10 9 9 9 9 9 9 9 9 8 8 8 7 7 8 7 7 7 6 6 6 5 3 5 5 6 6 8 8 6 8 6 6 5 5 5 6 7 6 6
10 10 10 10 10 10 10 10 9 9 9 8 8 7 7 7 7 7 7 6 6 6 5 4 3 5 4 4 5 5 9 3 6 5 4 3 3 4 6 6 6 7
11 11 10 10 10 11 11 10 10 9 9 7 8 8 8 7 7 7 6 6 6 6 5 4 4 4 5 6 7 8 5 4 4 4 3 3 3 4 6 7 8 8
10 11 11 11 11 11 11 10 9 8 8 8 9 9 8 8 7 7 6 6 6 6 4 4 4 4 5 5 5 6 5 2 3 4 3 3 3 4 6 6 10 16
10 10 11 12 11 11 10 11 10 9 9 8 8 8 8 7 7 7 6 5 5 5 8 6 4 4 6 7 8 6 6 2 4 4 4 4 5 6 5 5 6 9
10 11 11 11 11 11 10 9 9 9 9 9 8 8 8 7 7 6 7 6 4 4 4 4 4 4 5 6 7 8 9 3 5 3 4 4 5 6 6 5 5 5
Wind_Direction
180 182 190 199 203 238 215 192 213 192 235 230 194 194 217 148 102 83 349 300 53 35 55 35 44 30 345 24 15 8 331 4 324 7 14 4 350 345 344 356 7 20
182 183 175 194 184 203 252 253 215 227 181 209 334 5 255 59 152 225 110 61 17 63 57 41 14 44 6 35 16 359 360 346 13 12 3 358 2 358 358 3 8 17
192 189 182 194 185 185 209 218 285 312 345 67 229 217 18 241 94 80 87 78 43 45 65 58 5 68 35 52 33 4 349 31 20 18 354 359 19 345 2 359 5 22
195 192 190 205 189 169 184 187 198 226 246 214 229 235 216 56 58 117 101 92 68 109 99 82 35 39 50 49 44 351 349 44 36 11 356 359 10 358 8 9 13 16
193 190 194 198 218 162 191 188 189 189 202 213 206 38 75 59 69 29 87 115 123 97 82 58 40 35 61 49 35 6 13 27 30 3 360 21 11 19 11 12 13 10
187 196 198 175 154 175 213 241 247 245 106 357 216 191 87 83 65 66 46 37 74 83 68 57 45 38 49 50 42 25 26 29 25 351 21 25 19 27 25 21 19 15
185 177 199 165 120 169 216 222 209 214 193 195 75 80 88 83 86 79 74 76 64 57 70 66 63 52 57 54 45 31 25 39 21 17 37 38 26 32 31 20 25 14
180 160 160 128 158 177 219 231 224 197 260 86 96 79 88 92 88 89 85 77 73 65 62 62 62 69 57 54 39 33 26 38 13 44 34 39 24 35 36 21 15 13
180 150 139 143 180 190 204 221 219 252 106 102 105 105 95 101 98 93 89 82 78 69 59 65 49 55 58 48 46 33 32 37 33 30 35 34 25 26 29 21 24 23
97 122 131 151 177 197 214 226 262 99 95 106 109 110 100 86 89 95 94 97 94 82 73 69 61 55 54 47 43 43 47 46 37 35 39 33 28 26 30 17 32 29
115 122 140 167 180 179 217 83 81 80 85 94 98 106 109 106 105 115 114 99 90 86 76 66 62 56 49 50 45 52 54 49 42 38 37 27 16 3 31 32 41 36
128 143 160 187 194 152 128 98 87 90 87 80 91 100 105 115 111 93 84 85 82 83 80 68 55 58 55 56 62 61 63 51 43 54 46 21 6 13 32 36 33 52
142 159 158 159 213 101 99 102 101 95 99 98 98 99 97 91 88 86 80 80 73 69 70 65 62 57 53 59 64 68 68 45 43 43 34 17 20 35 30 29 42 50
146 154 154 150 136 106 111 109 107 104 100 102 98 99 97 96 99 103 100 92 89 90 85 77 63 56 36 49 78 57 53 58 49 35 34 26 29 34 34 21 32 63
143 157 140 150 116 119 116 118 114 110 109 104 108 108 112 109 101 97 95 96 93 90 86 75 70 59 44 35 21 20 40 67 30 41 35 38 37 30 26 30 27 33
145 145 146 128 125 123 125 122 120 118 115 112 107 97 90 91 95 101 103 104 100 88 80 74 69 66 57 47 33 20 340 24 64 24 32 44 36 32 24 22 37 23
146 147 145 131 129 128 127 126 121 118 116 108 103 106 106 105 110 111 111 106 98 90 81 75 68 55 43 29 27 8 9 328 63 43 41 38 44 38 24 19 11 10
150 149 146 140 139 135 130 125 120 117 118 116 116 116 117 119 114 111 109 104 93 91 88 86 84 55 37 29 13 5 1 335 42 45 48 40 43 46 33 15 360 2
154 150 148 145 145 139 132 127 124 124 124 125 125 124 121 121 122 118 110 110 112 108 103 102 98 49 34 27 13 1 350 347 73 59 55 45 35 38 28 15 6 9
155 152 150 147 143 139 139 132 131 130 129 124 122 125 127 130 125 117 114 107 100 96 97 102 89 37 24 19 10 357 342 333 67 70 64 52 42 36 24 15 8 7
154 152 151 145 144 141 144 142 134 132 129 128 131 132 132 126 124 121 112 113 115 114 112 110 85 40 32 15 3 349 340 320 71 66 63 61 60 56 43 26 17 17
156 154 150 147 146 147 152 143 136 135 134 133 129 126 117 116 115 123 127 118 108 106 109 94 85 53 37 17 353 331 332 88 98 102 97 101 89 68 52 39 30 26
161 156 152 149 150 155 152 141 139 136 133 133 127 125 127 129 131 124 123 123 123 120 112 109 87 43 31 27 11 4 346 109 125 125 134 121 111 91 76 53 43 35
160 155 150 152 157 157 147 139 135 133 134 136 134 133 133 133 128 126 123 125 122 118 121 115 102 72 56 36 10 9 335 179 142 132 128 113 88 91 99 76 50 51
156 153 153 156 156 148 142 139 140 138 135 133 131 129 127 131 131 127 126 118 113 114 126 122 118 96 51 28 21 6 351 213 145 148 141 127 107 74 67 76 69 48
153 152 154 151 146 137 137 137 137 135 136 133 130 130 133 127 126 127 121 113 112 123 107 109 100 77 53 37 25 22 9 58 87 94 64 75 89 96 76 61 60 63